Location: Aiyekoto
(8.4333°N, 4.3667°E)
Time: 20:52:16
(UTC+00:00)

Cosmos 1844 Rocket - Visible Passes

Search period start: 25 September 2020 00:00
Search period end: 05 October 2020 00:00
Orbit: 824 x 845 km, 71.0° (Epoch: 25 September)

Date Brightness Start Highest point End Pass type
(mag) Time Alt. Az. Time Alt. Az. Time Alt. Az.
25 Sep 3.8 04:41:39 10° N 04:47:04 47° ENE 04:52:29 10° SSE visible
26 Sep 4.0 04:24:33 10° N 04:29:51 41° ENE 04:35:09 10° SE visible
27 Sep 4.2 04:07:28 10° N 04:12:38 37° ENE 04:17:47 10° SE visible
28 Sep 4.4 03:50:24 10° N 03:55:24 32° ENE 04:00:24 10° SE visible
29 Sep 4.6 03:33:22 10° NNE 03:38:11 29° ENE 03:42:59 10° SE visible
30 Sep 4.7 03:16:22 10° NNE 03:20:57 25° ENE 03:25:31 10° SE visible
30 Sep 3.8 05:00:12 10° NW 05:04:33 23° WSW 05:08:54 10° SSW visible
01 Oct 4.8 03:00:01 12° NNE 03:03:43 22° ENE 03:08:02 10° ESE visible
01 Oct 3.6 04:42:45 10° NW 04:47:20 26° WSW 04:51:58 10° SSW visible
02 Oct 4.9 02:46:17 20° ENE 02:46:29 20° ENE 02:50:29 10° ESE visible
02 Oct 3.4 04:28:08 24° WNW 04:30:08 29° WSW 04:34:59 10° SSW visible
03 Oct 5.4 02:31:46 13° ESE 02:31:46 13° ESE 02:32:53 10° ESE visible
03 Oct 3.4 04:13:34 32° WSW 04:13:34 32° WSW 04:17:58 10° SSW visible
04 Oct 4.1 03:58:32 23° SSW 03:58:32 23° SSW 04:00:55 10° S visible
